Location: Lussas
(44.6119°N, 4.4726°E)
Time: 06:26:20
(UTC+00:00)

Cosmos 2263 Rocket - Pass Details

Date: 26 November 2020
Orbit: 823 x 849 km, 71.0° (Epoch: 18 January)

Event Time Altitude Azimuth Distance (km) Brightness Sun altitude
Exits shadow 03:46:55 29° 154° (SSE) 1,510 3.6 -32.6°
Maximum altitude 03:49:11 42° 107° (ESE) 1,197 3.3 -32.2°
Drops below altitude 10° 03:54:28 10° 38° (NE) 2,477 5.0 -31.3°
Sets 03:57:03 0° 32° (NNE) 3,419 5.8 -30.8°
